Location: Damada
(14.7329°N, 3.1761°W)
Time: 09:12:50
(UTC+00:00)

GPS 2-15 Rocket1 - Pass Details

Date: 18 February 2020
Orbit: 624 x 675 km, 19.8° (Epoch: 27 March)

Event Time Altitude Azimuth Distance (km) Brightness Sun altitude
Rises 19:11:51 0° 285° (WNW) 2,900 7.8 -13.7°
Reaches altitude 10° 19:14:15 10° 290° (WNW) 2,000 6.7 -14.3°
Maximum altitude 19:18:50 52° 7° (N) 785 3.4 -15.4°
Enters shadow 19:21:09 27° 72° (ENE) 1,220 4.0 -15.9°
